User: anonymous   Login
Location: Unspecified
(0.0000°N, 0.0000°E)
Time: 06:21:24
(UTC+00:00)
Language:

ATHENOXAT 1 - Orbit

View from above orbital plane
View from above orbital plane
View from above satellite
View from above satellite

Ground track
Ground track

The orbit data is extracted from the following two-line orbital elements,

1 41168U 15077C   18116.07016943  .00002779  00000-0  11621-3 0  9996
2 41168  14.9858  41.7296 0012169  35.3746  66.1800 15.12666095130470
Epoch (UTC): 26 April 2018 01:41:02
Eccentricity: 0.0012169
inclination: 14.9858°
perigee height: 519 km
apogee height: 536 km
right ascension of ascending node: 41.7296°
argument of perigee: 35.3746°
revolutions per day: 15.12666095
mean anomaly at epoch: 66.1800°
orbit number at epoch: 13047

The dashed part of the orbit path shows where the satellite is in the earth's shadow,  

DLR